[[{"header":{"parameterUnit":"m.s-1","parameterCategory":1,"la1":30.2991,"la2":30.254,"lo1":-89.0895,"lo2":-89.0444,"dy":0.0017,"dx":0.0017,"nx":28,"ny":28,"refTime":"2026-02-13T09:00:00:Z","depth":0,"parameterNumber":2,"parameterNumberName":"U-component_of_WINDS"},"data":[0,0,0,0,0,0,0,0,0,0,0,0,0,0,0,0,0,0,0,0,0,0,0,0,0,0,0,0,0,0,0,0,0,0,0,0,0,0,0,0,0,0,0,0,0,0,0,0,0,0,0,0,0,0,0,0,0,0,-0.4045,-0.4045,0,-0.3992,-0.3992,-0.3991,-0.3965,-0.3965,-0.3965,-0.3965,-0.391,-0.3909,-0.3907,0,0,0,0,0,0,0,0,0,0,0,0,0,-0.4121,-0.412,-0.4045,-0.4045,-0.4044,-0.3992,-0.3992,-0.3991,-0.3965,-0.3965,-0.3965,-0.3965,-0.391,-0.3909,-0.3907,0,0,0,0,0,0,0,0,0,0,0,0,0,-0.408,-0.412,-0.4045,-0.4025,-0.4022,-0.3993,-0.3992,-0.3991,-0.3965,-0.3965,-0.3965,-0.3965,-0.3911,-0.3909,-0.3907,-0.3893,0,0,-0.39,-0.3899,0,0,0,0,0,0,0,0,-0.4083,-0.4078,-0.4028,-0.4026,-0.4023,-0.3985,-0.3998,-0.3958,-0.3965,-0.3987,-0.3965,-0.3965,-0.3935,-0.3931,-0.3921,-0.3891,-0.3889,-0.39,-0.3899,-0.3898,-0.3897,0,0,0,0,0,0,0,-0.4086,-0.408,-0.4024,-0.4028,-0.4025,-0.4017,-0.4011,-0.3991,-0.3961,-0.3985,-0.3983,-0.3977,-0.3934,-0.3923,-0.3919,-0.3888,-0.39,-0.3898,-0.3897,-0.3896,-0.3842,-0.3842,0,0,0,0,0,0,-0.4092,-0.4082,-0.4026,-0.4023,-0.4054,-0.4016,-0.4009,-0.3997,-0.3962,-0.3956,-0.3977,-0.3976,-0.3927,-0.3922,-0.3917,-0.3899,-0.3898,-0.3896,-0.3894,-0.3842,-0.3842,-0.3842,0,0,0,0,0,0,-0.4094,-0.4087,-0.4028,-0.4052,-0.4044,-0.4015,-0.4001,-0.3996,-0.3986,-0.3956,-0.395,-0.3972,-0.3927,-0.392,-0.3899,-0.3896,-0.3895,-0.3893,-0.3843,-0.3842,-0.3842,-0.3862,0,0,0,0,0,0,-0.4096,-0.4088,-0.4083,-0.4052,-0.4043,-0.4012,-0.4001,-0.3995,-0.3982,-0.398,-0.3949,-0.3944,-0.3926,-0.3903,-0.3897,-0.3893,-0.3891,-0.3843,-0.3842,-0.3842,-0.3861,-0.3862,-0.3863,0,0,0,0,0,-0.4099,-0.4091,-0.4083,-0.4077,-0.4036,-0.4012,-0.4006,-0.3986,-0.3982,-0.3977,-0.3957,-0.3945,-0.3897,-0.3901,-0.3894,-0.389,-0.3843,-0.3843,-0.3842,-0.3861,-0.3862,-0.3863,0,0,0,0,0,0,-0.4123,-0.4087,-0.4078,-0.406,-0.4039,-0.4007,-0.4,-0.3988,-0.3968,-0.3967,-0.3942,-0.3935,-0.3916,-0.39,-0.3905,-0.3874,-0.3869,-0.3867,-0.3885,-0.3886,-0.3887,-0.3891,-0.3889,0,0,0,0,0,-0.4126,-0.411,-0.4079,-0.4066,-0.4056,-0.403,-0.4018,-0.4004,-0.3981,-0.3972,-0.3951,-0.3929,-0.3909,-0.3897,-0.3877,-0.3858,-0.3851,-0.3852,-0.3853,-0.3854,-0.3853,-0.3841,-0.3841,-0.3841,-0.3841,-0.3841,0,0,-0.4133,-0.4111,-0.4102,-0.407,-0.4052,-0.4035,-0.4023,-0.4005,-0.3992,-0.397,-0.3948,-0.3932,-0.3906,-0.3886,-0.3876,-0.3872,-0.3851,-0.3853,-0.3854,-0.3853,-0.384,-0.384,-0.384,-0.3841,-0.3841,-0.3841,0,0,-0.4136,-0.4118,-0.4105,-0.4087,-0.406,-0.4043,-0.4039,-0.4009,-0.3997,-0.3975,-0.3958,-0.3941,-0.3907,-0.3889,-0.3875,-0.3869,-0.3857,-0.3863,-0.3869,-0.3857,-0.3857,-0.3857,-0.3854,-0.3853,-0.3862,-0.3863,-0.3863,0,-0.4148,-0.4122,-0.41,-0.4083,-0.4069,-0.4047,-0.4033,-0.4017,-0.3985,-0.3975,-0.3971,-0.3927,-0.3908,-0.3883,-0.3882,-0.3871,-0.3866,-0.3867,-0.3859,-0.3858,-0.3858,-0.3855,-0.3854,-0.3863,-0.3863,-0.3863,-0.3863,0,-0.4137,-0.4119,-0.4111,-0.4081,-0.4065,-0.405,-0.4025,-0.4012,-0.3998,-0.3981,-0.3958,-0.3934,-0.3908,-0.3901,-0.3888,-0.3873,-0.3871,-0.3864,-0.3858,-0.3859,-0.3856,-0.3855,-0.3865,-0.3864,-0.3864,-0.3864,0,0,-0.4156,-0.4112,-0.4109,-0.4094,-0.4062,-0.4047,-0.403,-0.4005,-0.3994,-0.3972,-0.3956,-0.3927,-0.3919,-0.3903,-0.3888,-0.3878,-0.3873,-0.3871,-0.387,-0.3872,-0.3854,-0.3861,-0.386,-0.3865,-0.3864,-0.3864,-0.3856,0,-0.4154,-0.4123,-0.4102,-0.4079,-0.4061,-0.404,-0.4024,-0.4002,-0.3985,-0.3967,-0.3947,-0.3927,-0.3918,-0.3908,-0.3897,-0.3876,-0.3869,-0.3876,-0.3849,-0.3849,-0.3857,-0.3858,-0.3865,-0.3859,-0.3855,-0.3855,-0.3855,0,-0.4149,-0.4127,-0.4103,-0.4071,-0.4063,-0.4049,-0.4023,-0.4007,-0.398,-0.3968,-0.395,-0.3934,-0.3913,-0.3909,-0.388,-0.3885,-0.3872,-0.386,-0.3859,-0.3856,-0.3852,-0.3855,-0.3857,-0.3856,-0.3853,-0.3853,-0.3853,0,-0.4165,-0.4129,-0.4109,-0.4097,-0.406,-0.4051,-0.4035,-0.4009,-0.3994,-0.3971,-0.3961,-0.3936,-0.3923,-0.3903,-0.388,-0.3879,-0.3853,-0.3847,-0.3842,-0.3842,-0.3838,-0.3838,-0.3837,-0.3829,-0.383,-0.383,-0.383,0,-0.4166,-0.4151,-0.4116,-0.4104,-0.4086,-0.4061,-0.4044,-0.4026,-0.4003,-0.3986,-0.3965,-0.395,-0.392,-0.3901,-0.3882,-0.3861,-0.3855,-0.3844,-0.3839,-0.3846,-0.3847,-0.3837,-0.3837,-0.3829,-0.3829,-0.3829,-0.3829,0,-0.4181,-0.4157,-0.4134,-0.4099,-0.409,-0.4079,-0.4049,-0.4036,-0.4017,-0.3996,-0.3989,-0.3959,-0.3935,-0.3909,-0.3876,-0.3864,-0.3843,-0.3836,-0.3852,-0.3849,-0.3845,-0.3846,-0.3838,-0.3836,-0.383,-0.383,-0.383,0,-0.4184,-0.4172,-0.4136,-0.4123,-0.4108,-0.4087,-0.4072,-0.4046,-0.4031,-0.3999,-0.399,-0.3964,-0.3942,-0.3904,-0.3879,-0.3853,-0.3845,-0.3844,-0.3842,-0.3848,-0.3845,-0.3846,-0.3844,-0.3846,-0.3846,-0.3846,-0.3846,0,-0.419,-0.4178,-0.4158,-0.4132,-0.4114,-0.4093,-0.407,-0.4061,-0.403,-0.4014,-0.3989,-0.3972,-0.3937,-0.3912,-0.3883,-0.3865,-0.385,-0.3847,-0.3844,-0.3851,-0.3861,-0.3855,-0.3855,-0.3848,-0.3847,-0.3847,-0.3847,-0.3847,-0.4199,-0.4187,-0.416,-0.4136,-0.4117,-0.4096,-0.4081,-0.406,-0.4038,-0.4009,-0.3994,-0.3969,-0.3941,-0.39,-0.3883,-0.3862,-0.3858,-0.3854,-0.3853,-0.3853,-0.3854,-0.3864,-0.3857,-0.3857,-0.3856,-0.3856,-0.3856,0,-0.4205,-0.4185,-0.4164,-0.4133,-0.4115,-0.4102,-0.4076,-0.4061,-0.4039,-0.4015,-0.3993,-0.3963,-0.3938,-0.3909,-0.3882,-0.387,-0.3863,-0.3864,-0.3865,-0.3861,-0.386,-0.3865,-0.387,-0.387,-0.387,-0.387,-0.387,-0.387,-0.4205,-0.4184,-0.4168,-0.4136,-0.4117,-0.4092,-0.4078,-0.4058,-0.4039,-0.4006,-0.3985,-0.3967,-0.394,-0.391,-0.3885,-0.3878,-0.3868,-0.3871,-0.3862,-0.3862,-0.3861,-0.386,-0.3864,-0.387,-0.387,-0.3864,-0.3864,-0.3864]},{"header":{"parameterUnit":"m.s-1","parameterCategory":1,"la1":30.2991,"la2":30.254,"lo1":-89.0895,"lo2":-89.0444,"dy":0.0017,"dx":0.0017,"nx":28,"ny":28,"refTime":"2026-02-13T09:00:00:Z","depth":0,"parameterNumber":3,"parameterNumberName":"V-component_of_WINDS"},"data":[0,0,0,0,0,0,0,0,0,0,0,0,0,0,0,0,0,0,0,0,0,0,0,0,0,0,0,0,0,0,0,0,0,0,0,0,0,0,0,0,0,0,0,0,0,0,0,0,0,0,0,0,0,0,0,0,0,0,-1.4456,-1.4458,0,-1.4564,-1.4566,-1.4567,-1.4591,-1.459,-1.459,-1.4589,-1.4701,-1.4704,-1.4708,0,0,0,0,0,0,0,0,0,0,0,0,0,-1.4273,-1.4276,-1.4456,-1.4458,-1.4459,-1.4564,-1.4566,-1.4567,-1.4591,-1.459,-1.4589,-1.4589,-1.4699,-1.4704,-1.4708,0,0,0,0,0,0,0,0,0,0,0,0,0,-1.4364,-1.4277,-1.4456,-1.4484,-1.4487,-1.4564,-1.4566,-1.4567,-1.4591,-1.459,-1.4589,-1.4588,-1.4698,-1.4703,-1.4709,-1.4766,0,0,-1.4726,-1.4728,0,0,0,0,0,0,0,0,-1.4358,-1.437,-1.4478,-1.4482,-1.4486,-1.4563,-1.4542,-1.4634,-1.4592,-1.4552,-1.4589,-1.4588,-1.4656,-1.4665,-1.4688,-1.4771,-1.4776,-1.4726,-1.4729,-1.4732,-1.4733,0,0,0,0,0,0,0,-1.4352,-1.4366,-1.4499,-1.448,-1.4485,-1.4491,-1.4503,-1.4559,-1.4609,-1.4555,-1.4557,-1.457,-1.4658,-1.4682,-1.469,-1.4777,-1.4726,-1.4731,-1.4734,-1.4736,-1.4914,-1.4915,0,0,0,0,0,0,-1.4341,-1.436,-1.4496,-1.4502,-1.4418,-1.4495,-1.4508,-1.454,-1.4608,-1.4618,-1.4571,-1.457,-1.4673,-1.4684,-1.4694,-1.4766,-1.4732,-1.4737,-1.474,-1.4912,-1.4914,-1.4915,0,0,0,0,0,0,-1.4337,-1.4353,-1.4491,-1.4432,-1.445,-1.45,-1.4535,-1.4542,-1.4567,-1.462,-1.4629,-1.4586,-1.4673,-1.4687,-1.4748,-1.477,-1.4739,-1.4744,-1.4911,-1.4913,-1.4915,-1.491,0,0,0,0,0,0,-1.4331,-1.4351,-1.4373,-1.4432,-1.4453,-1.4543,-1.4536,-1.4545,-1.4576,-1.4577,-1.4637,-1.4646,-1.4673,-1.4739,-1.4753,-1.4777,-1.4749,-1.4909,-1.4911,-1.4914,-1.4908,-1.4912,-1.4914,0,0,0,0,0,-1.4325,-1.4367,-1.4374,-1.439,-1.4482,-1.4544,-1.4556,-1.4586,-1.4578,-1.46,-1.4635,-1.4644,-1.4765,-1.4746,-1.4761,-1.4787,-1.4907,-1.4911,-1.4914,-1.4907,-1.4911,-1.4914,0,0,0,0,0,0,-1.431,-1.4376,-1.4384,-1.4447,-1.4489,-1.4548,-1.4577,-1.4589,-1.4635,-1.4634,-1.4669,-1.4683,-1.4742,-1.4771,-1.4747,-1.4846,-1.4836,-1.4843,-1.4826,-1.483,-1.4833,-1.4825,-1.4753,0,0,0,0,0,-1.4314,-1.4358,-1.4414,-1.4464,-1.4485,-1.4527,-1.4556,-1.4575,-1.4621,-1.4639,-1.4678,-1.4722,-1.4771,-1.4802,-1.4849,-1.4912,-1.4926,-1.4938,-1.4941,-1.4943,-1.4949,-1.4985,-1.4991,-1.4926,-1.4926,-1.4926,0,0,-1.4323,-1.4364,-1.439,-1.4462,-1.4498,-1.4544,-1.4543,-1.4591,-1.4626,-1.4647,-1.4707,-1.4737,-1.4789,-1.4851,-1.4881,-1.4877,-1.497,-1.4947,-1.4949,-1.4953,-1.4989,-1.4995,-1.5,-1.4928,-1.4927,-1.4927,0,0,-1.4363,-1.4398,-1.4444,-1.448,-1.4533,-1.4561,-1.4572,-1.4629,-1.4649,-1.471,-1.4727,-1.4769,-1.4851,-1.4887,-1.4917,-1.497,-1.4981,-1.4984,-1.5001,-1.5036,-1.5041,-1.5046,-1.5066,-1.5072,-1.499,-1.499,-1.499,0,-1.4367,-1.4437,-1.4467,-1.4515,-1.4546,-1.4566,-1.4614,-1.4647,-1.4713,-1.4734,-1.4729,-1.4833,-1.4869,-1.4941,-1.4954,-1.4977,-1.4991,-1.4978,-1.5038,-1.5043,-1.5048,-1.5067,-1.5074,-1.499,-1.499,-1.499,-1.499,0,-1.444,-1.4488,-1.4519,-1.4582,-1.4617,-1.4664,-1.4702,-1.4733,-1.4749,-1.4778,-1.484,-1.4884,-1.4941,-1.4959,-1.4975,-1.5034,-1.503,-1.503,-1.5021,-1.5054,-1.5073,-1.508,-1.499,-1.499,-1.499,-1.499,0,0,-1.4474,-1.4553,-1.4564,-1.4593,-1.4653,-1.4691,-1.474,-1.4795,-1.4822,-1.4867,-1.4909,-1.4978,-1.4979,-1.5012,-1.5032,-1.5063,-1.5103,-1.506,-1.5062,-1.5068,-1.5171,-1.5171,-1.5179,-1.511,-1.5112,-1.5113,-1.5167,0,-1.4522,-1.4609,-1.4637,-1.471,-1.4755,-1.4775,-1.4817,-1.4859,-1.4887,-1.4929,-1.496,-1.5009,-1.5006,-1.5027,-1.5058,-1.5092,-1.5125,-1.5088,-1.5151,-1.5153,-1.5138,-1.5189,-1.5189,-1.5238,-1.5175,-1.5176,-1.5177,0,-1.459,-1.4636,-1.4713,-1.4768,-1.4788,-1.4825,-1.4878,-1.4918,-1.4966,-1.4984,-1.5021,-1.5039,-1.5091,-1.5078,-1.515,-1.5125,-1.5152,-1.5172,-1.5175,-1.5183,-1.5167,-1.5199,-1.5254,-1.5261,-1.5189,-1.5188,-1.5187,0,-1.4608,-1.4689,-1.4746,-1.477,-1.4835,-1.4861,-1.489,-1.4936,-1.4968,-1.5014,-1.5035,-1.5087,-1.5115,-1.5155,-1.5187,-1.5174,-1.5257,-1.5246,-1.5274,-1.5273,-1.5292,-1.529,-1.5352,-1.5307,-1.5307,-1.5307,-1.5307,0,-1.466,-1.4706,-1.4755,-1.479,-1.4843,-1.4875,-1.4926,-1.4956,-1.4997,-1.5039,-1.5059,-1.5097,-1.5136,-1.518,-1.5205,-1.5262,-1.5274,-1.5291,-1.5297,-1.529,-1.5288,-1.5309,-1.5307,-1.5309,-1.5308,-1.5308,-1.5308,0,-1.469,-1.4724,-1.4787,-1.4844,-1.4859,-1.4895,-1.4944,-1.4979,-1.5007,-1.5059,-1.5073,-1.5118,-1.5171,-1.5206,-1.5273,-1.529,-1.5352,-1.5357,-1.5336,-1.5339,-1.5366,-1.5363,-1.5445,-1.5457,-1.5402,-1.5403,-1.5403,0,-1.4721,-1.4757,-1.4817,-1.4846,-1.4874,-1.4921,-1.4953,-1.4986,-1.5018,-1.5076,-1.5104,-1.5158,-1.5203,-1.5286,-1.5325,-1.5376,-1.5384,-1.5409,-1.5392,-1.5383,-1.5385,-1.5383,-1.5387,-1.5412,-1.5412,-1.5412,-1.5413,0,-1.4772,-1.4787,-1.4833,-1.4884,-1.4922,-1.4964,-1.5006,-1.5029,-1.5069,-1.5105,-1.5159,-1.5194,-1.5262,-1.5316,-1.5371,-1.5401,-1.5414,-1.5417,-1.5427,-1.542,-1.5407,-1.5416,-1.5344,-1.5416,-1.5415,-1.5415,-1.5415,-1.5415,-1.4805,-1.4838,-1.4885,-1.4935,-1.497,-1.501,-1.5045,-1.5078,-1.5123,-1.5181,-1.5198,-1.5254,-1.5302,-1.5377,-1.5408,-1.5453,-1.545,-1.5464,-1.5467,-1.5471,-1.5471,-1.5399,-1.5463,-1.5463,-1.5463,-1.5463,-1.5463,0,-1.4858,-1.4889,-1.4935,-1.4993,-1.5033,-1.5041,-1.5088,-1.512,-1.517,-1.5212,-1.5256,-1.5318,-1.537,-1.5413,-1.5467,-1.5494,-1.5502,-1.5507,-1.5506,-1.5513,-1.547,-1.5457,-1.5501,-1.5501,-1.5501,-1.5501,-1.5501,-1.5501,-1.4891,-1.4948,-1.4968,-1.5043,-1.5074,-1.513,-1.5156,-1.5192,-1.5227,-1.5295,-1.5338,-1.5365,-1.5408,-1.5465,-1.5514,-1.5525,-1.5544,-1.5549,-1.5562,-1.552,-1.5516,-1.5512,-1.55,-1.5552,-1.5553,-1.5602,-1.5602,-1.5602]}]]